Location: Saint-Maurice-d�Ard�che
(44.5216°N, 4.4002°E)
Time: 16:29:48
(UTC+00:00)

Cosmos 1758 - Pass Details

Date: 30 March 2020
Orbit: 540 x 563 km, 82.5° (Epoch: 05 June)

Event Time Altitude Azimuth Distance (km) Brightness Sun altitude
Rises 19:40:10 0° 192° (SSW) 2,737 6.8 -16.7°
Reaches altitude 10° 19:42:20 10° 194° (SSW) 1,848 5.9 -17.0°
Maximum altitude 19:46:24 72° 280° (W) 596 3.6 -17.7°
Drops below altitude 10° 19:50:30 10° 5° (N) 1,865 6.3 -18.3°
Sets 19:52:42 0° 7° (N) 2,765 7.2 -18.7°
